Hourly Data Report for August 07, 2017

PITT MEADOWS CS
BRITISH COLUMBIA

49°12'29.964" N
122°41'24.076" W
5.00 m
1106178
71775
WMM

Download Data

Hourly Data (August 2017)
Hourly Data Report for August 7, 2017
TIME
LST
Temp Definition
°C
Dew Point Definition
°C
Rel Hum Definition
%
Precip. Amount Definition
mm

Wind Dir Definition
10's deg

Wind Spd Definition
km/h
Visibility Definition
km
Stn Press Definition
kPa
Hmdx Definition


Wind Chill Definition


Weather Definition


00:00 16.9 15.1 89 0.0 13 2   101.41     LegendNANA
01:00 16.3 14.6 90 0.0 12 2   101.42     LegendNANA
02:00 16.1 14.6 91 0.0 12 2   101.45     LegendNANA
03:00 15.0 13.4 90 0.0 0 1   101.48     LegendNANA
04:00 15.2 14.2 93 0.0   0   101.48     LegendNANA
05:00 15.1 14.2 95 0.0   0   101.50     LegendNANA
06:00 15.5 14.6 95 0.0   0   101.54     LegendNANA
07:00 17.2 15.2 88 0.0 16 2   101.56     LegendNANA
08:00 19.3 15.8 80 0.0 15 1   101.56     LegendNANA
09:00 20.8 15.8 73 0.0 22 3   101.55 25   LegendNANA
10:00 23.2 17.0 68 0.0 17 4   101.53 28   LegendNANA
11:00 25.4 16.9 59 0.0 25 5   101.50 31   LegendNANA
12:00 27.0 17.1 55 0.0 26 7   101.47 32   LegendNANA
13:00 27.9 16.8 51 0.0 26 9   101.42 33   LegendNANA
14:00 29.1 16.7 47 0.0 25 8   101.38 34   LegendNANA
15:00 29.3 16.8 47 0.0 25 8   101.34 34   LegendNANA
16:00 29.4 16.8 47 0.0 25 8   101.33 35   LegendNANA
17:00 27.1 17.7 57 0.0 18 8   101.31 33   LegendNANA
18:00 25.1 16.9 60 0.0 20 6   101.30 30   LegendNANA
19:00 23.3 16.6 66 0.0 19 6   101.32 28   LegendNANA
20:00 21.2 16.4 74 0.0 14 4   101.36 26   LegendNANA
21:00 19.3 15.2 77 0.0 11 3   101.39     LegendNANA
22:00 19.5 16.3 82 0.0 16 5   101.42     LegendNANA
23:00 18.1 15.5 85 0.0 11 3   101.44     LegendNANA

Notes on Data Quality.

Legend

  • E = Estimated
  • M = Missing
  • NA = Not Available*
  • [empty] = Indicates an unobserved value
Date modified: